Tracking 35280 objects as of 7-Sep-2026
HD Live streaming from Space Station
objects crossing your sky now

STARLINK-1504

Track STARLINK-1504 now!
10-day predictions
STARLINK-1504 is classified as:


NORAD ID: 45746
Int'l Code: 2020-038S
Launch date: June 13, 2020
Source: United States (US)
Launch site: AIR FORCE EASTERN TEST RANGE (AFETR)
Your satellite tracking list
Your tracking list is empty




NASA's NSSDC Master Catalog

Two Line Element Set (TLE):
1 45746U 20038S   26249.95370655  .00033194  00000-0  32674-3 0  9997
2 45746  53.0181 339.6509 0002386  45.6348 314.4862 15.65696425345795
Source of the keplerian elements: AFSPC